Time,TemperatureF,DewpointF,PressureIn,WindDirection,WindDirectionDegrees,WindSpeedMPH,WindSpeedGustMPH,Humidity,HourlyPrecipIn,Conditions,Clouds,dailyrainin,SoftwareType,DateUTC
2013-01-12 00:01:00,49.6,47.7,29.92,SW,233,2.0,3.0,93,0.00,,,0.00,Wunderground v.1.15,2013-01-12 05:01:00,
2013-01-12 00:02:00,49.6,47.4,29.92,SSW,196,2.0,3.0,92,0.00,,,0.00,Wunderground v.1.15,2013-01-12 05:02:00,
2013-01-12 00:04:00,49.6,47.4,29.92,SSW,198,2.0,3.0,92,0.00,,,0.00,Wunderground v.1.15,2013-01-12 05:04:00,
2013-01-12 00:09:00,49.6,47.4,29.92,SE,124,1.0,3.0,92,0.00,,,0.00,Wunderground v.1.15,2013-01-12 05:09:00,
2013-01-12 00:15:00,49.6,47.4,29.92,SE,145,2.0,3.0,92,0.00,,,0.00,Wunderground v.1.15,2013-01-12 05:15:00,
2013-01-12 00:21:00,49.7,47.8,29.92,South,184,2.0,5.0,93,0.00,,,0.00,Wunderground v.1.15,2013-01-12 05:21:00,
2013-01-12 00:26:00,49.7,47.5,29.92,SSW,193,2.0,5.0,92,0.00,,,0.00,Wunderground v.1.15,2013-01-12 05:26:00,
2013-01-12 00:32:00,49.7,47.5,29.92,ESE,104,1.0,4.0,92,0.00,,,0.00,Wunderground v.1.15,2013-01-12 05:32:00,
2013-01-12 00:38:00,49.7,47.5,29.92,South,177,1.0,4.0,92,0.00,,,0.00,Wunderground v.1.15,2013-01-12 05:38:00,
2013-01-12 00:43:00,49.7,47.5,29.92,East,90,2.0,4.0,92,0.00,,,0.00,Wunderground v.1.15,2013-01-12 05:43:00,
2013-01-12 00:50:00,49.5,47.3,29.92,SE,131,1.0,2.0,92,0.00,,,0.00,Wunderground v.1.15,2013-01-12 05:50:00,
2013-01-12 00:58:00,49.4,47.5,29.92,South,169,2.0,3.0,93,0.00,,,0.00,Wunderground v.1.15,2013-01-12 05:58:00,
2013-01-12 01:04:00,49.2,47.3,29.92,SSE,148,2.0,3.0,93,0.00,,,0.00,Wunderground v.1.15,2013-01-12 06:04:00,
2013-01-12 01:10:00,49.1,47.2,29.92,SSE,158,1.0,1.0,93,0.00,,,0.00,Wunderground v.1.15,2013-01-12 06:10:00,
2013-01-12 01:15:00,49.0,47.1,29.92,South,174,1.0,4.0,93,0.00,,,0.00,Wunderground v.1.15,2013-01-12 06:15:00,
2013-01-12 01:20:00,49.0,47.3,29.92,SE,137,2.0,3.0,94,0.00,,,0.00,Wunderground v.1.15,2013-01-12 06:20:00,
2013-01-12 01:26:00,48.9,47.2,29.92,South,181,2.0,3.0,94,0.00,,,0.00,Wunderground v.1.15,2013-01-12 06:26:00,
2013-01-12 01:31:00,49.0,47.3,29.92,SE,132,2.0,2.0,94,0.00,,,0.00,Wunderground v.1.15,2013-01-12 06:31:00,
2013-01-12 01:38:00,48.9,47.2,29.92,SSW,194,2.0,2.0,94,0.00,,,0.00,Wunderground v.1.15,2013-01-12 06:38:00,
2013-01-12 01:44:00,48.8,47.2,29.92,SW,231,2.0,6.0,94,0.00,,,0.00,Wunderground v.1.15,2013-01-12 06:44:00,
2013-01-12 01:49:00,48.6,47.0,29.92,SW,214,2.0,2.0,94,0.00,,,0.00,Wunderground v.1.15,2013-01-12 06:49:00,
2013-01-12 01:54:00,48.6,47.0,29.92,WSW,257,1.0,5.0,95,0.00,,,0.00,weatherlink.com 1.10,2013-01-12 06:54:00,
2013-01-12 01:59:00,48.6,47.2,29.92,ESE,120,1.0,2.0,95,0.00,,,0.00,Wunderground v.1.15,2013-01-12 06:59:00,
2013-01-12 02:05:00,48.5,47.1,29.92,WSW,240,2.0,3.0,95,0.00,,,0.00,Wunderground v.1.15,2013-01-12 07:05:00,
2013-01-12 02:11:00,48.5,47.0,29.93,SSE,155,0.0,6.0,95,0.00,,,0.00,weatherlink.com 1.10,2013-01-12 07:11:00,
2013-01-12 02:16:00,48.4,47.0,29.93,SSE,165,2.0,2.0,95,0.00,,,0.00,Wunderground v.1.15,2013-01-12 07:16:00,
2013-01-12 02:22:00,48.4,47.0,29.93,ESE,108,2.0,4.0,95,0.00,,,0.00,Wunderground v.1.15,2013-01-12 07:22:00,
2013-01-12 02:28:00,48.5,47.1,29.93,South,176,3.0,3.0,95,0.00,,,0.00,Wunderground v.1.15,2013-01-12 07:28:00,
2013-01-12 02:34:00,48.5,47.1,29.93,SE,129,3.0,4.0,95,0.00,,,0.00,Wunderground v.1.15,2013-01-12 07:34:00,
2013-01-12 02:39:00,48.6,47.0,29.94,SE,139,1.0,5.0,95,0.00,,,0.00,weatherlink.com 1.10,2013-01-12 07:39:00,
2013-01-12 02:44:00,48.6,47.2,29.94,South,177,2.0,4.0,95,0.00,,,0.00,Wunderground v.1.15,2013-01-12 07:44:00,
2013-01-12 02:50:00,48.5,47.1,29.94,South,173,2.0,5.0,95,0.00,,,0.00,Wunderground v.1.15,2013-01-12 07:50:00,
2013-01-12 02:56:00,48.4,47.0,29.94,East,85,2.0,5.0,95,0.00,,,0.00,Wunderground v.1.15,2013-01-12 07:56:00,
2013-01-12 03:01:00,48.4,47.0,29.94,ESE,121,2.0,3.0,95,0.00,,,0.00,Wunderground v.1.15,2013-01-12 08:01:00,
2013-01-12 03:07:00,48.3,46.9,29.94,South,169,2.0,2.0,95,0.00,,,0.00,Wunderground v.1.15,2013-01-12 08:07:00,
2013-01-12 03:13:00,48.3,46.9,29.94,ENE,64,2.0,2.0,95,0.00,,,0.00,Wunderground v.1.15,2013-01-12 08:13:00,
2013-01-12 03:18:00,48.2,46.8,29.94,SSE,148,3.0,3.0,95,0.00,,,0.00,Wunderground v.1.15,2013-01-12 08:18:00,
2013-01-12 03:24:00,48.1,46.7,29.94,East,93,3.0,4.0,95,0.00,,,0.00,Wunderground v.1.15,2013-01-12 08:24:00,
2013-01-12 03:30:00,48.1,47.0,29.94,East,100,2.0,3.0,96,0.00,,,0.00,Wunderground v.1.15,2013-01-12 08:30:00,
2013-01-12 03:35:00,48.1,47.0,29.94,SW,214,2.0,3.0,96,0.00,,,0.00,Wunderground v.1.15,2013-01-12 08:35:00,
2013-01-12 03:40:00,48.0,46.9,29.94,SSE,167,2.0,4.0,96,0.00,,,0.00,Wunderground v.1.15,2013-01-12 08:40:00,
2013-01-12 03:47:00,47.9,46.8,29.94,SW,221,2.0,4.0,96,0.00,,,0.00,Wunderground v.1.15,2013-01-12 08:47:00,
2013-01-12 03:52:00,47.9,46.8,29.94,ESE,110,2.0,4.0,96,0.00,,,0.00,Wunderground v.1.15,2013-01-12 08:52:00,
2013-01-12 04:02:00,47.9,46.8,29.94,SSW,205,2.0,2.0,96,0.00,,,0.00,Wunderground v.1.15,2013-01-12 09:02:00,
2013-01-12 04:07:00,47.9,46.8,29.94,SE,146,2.0,3.0,96,0.00,,,0.00,Wunderground v.1.15,2013-01-12 09:07:00,
2013-01-12 04:13:00,48.0,46.9,29.94,South,169,3.0,4.0,96,0.00,,,0.00,Wunderground v.1.15,2013-01-12 09:13:00,
2013-01-12 04:18:00,48.0,46.9,29.94,SE,127,3.0,3.0,96,0.00,,,0.00,Wunderground v.1.15,2013-01-12 09:18:00,
2013-01-12 04:24:00,48.0,46.9,29.94,SE,143,3.0,5.0,96,0.00,,,0.00,Wunderground v.1.15,2013-01-12 09:24:00,
2013-01-12 04:30:00,47.9,47.1,29.94,South,190,4.0,5.0,97,0.00,,,0.00,Wunderground v.1.15,2013-01-12 09:30:00,
2013-01-12 04:37:00,48.0,47.2,29.94,SE,136,4.0,5.0,97,0.00,,,0.00,Wunderground v.1.15,2013-01-12 09:37:00,
2013-01-12 04:42:00,48.1,47.3,29.94,NNE,25,4.0,5.0,97,0.00,,,0.00,Wunderground v.1.15,2013-01-12 09:42:00,
2013-01-12 04:47:00,48.2,47.4,29.94,South,176,3.0,3.0,97,0.00,,,0.00,Wunderground v.1.15,2013-01-12 09:47:00,
2013-01-12 04:53:00,48.3,47.5,29.94,WSW,238,3.0,6.0,97,0.00,,,0.00,Wunderground v.1.15,2013-01-12 09:53:00,
2013-01-12 04:59:00,48.4,47.6,29.94,South,173,3.0,3.0,97,0.00,,,0.00,Wunderground v.1.15,2013-01-12 09:59:00,
2013-01-12 05:07:00,48.6,47.8,29.94,ESE,108,3.0,6.0,97,0.00,,,0.00,Wunderground v.1.15,2013-01-12 10:07:00,
2013-01-12 05:12:00,48.7,47.9,29.94,SSW,207,2.0,4.0,97,0.00,,,0.00,Wunderground v.1.15,2013-01-12 10:12:00,
2013-01-12 05:18:00,48.8,48.0,29.94,SSW,204,2.0,3.0,97,0.00,,,0.00,Wunderground v.1.15,2013-01-12 10:18:00,
2013-01-12 05:23:00,49.0,48.2,29.94,East,94,2.0,3.0,97,0.00,,,0.00,Wunderground v.1.15,2013-01-12 10:23:00,
2013-01-12 05:30:00,49.3,48.8,29.94,South,173,2.0,6.0,98,0.00,,,0.00,Wunderground v.1.15,2013-01-12 10:30:00,
2013-01-12 05:35:00,49.6,49.1,29.94,WSW,253,3.0,8.0,98,0.00,,,0.00,Wunderground v.1.15,2013-01-12 10:35:00,
2013-01-12 05:40:00,49.7,49.2,29.94,SSW,197,3.0,7.0,98,0.00,,,0.00,Wunderground v.1.15,2013-01-12 10:40:00,
2013-01-12 05:48:00,50.0,49.5,29.95,SSE,165,3.0,7.0,98,0.00,,,0.00,Wunderground v.1.15,2013-01-12 10:48:00,
2013-01-12 05:53:00,50.1,49.6,29.95,South,172,3.0,3.0,98,0.00,,,0.00,Wunderground v.1.15,2013-01-12 10:53:00,
2013-01-12 05:58:00,50.2,49.7,29.95,SSE,164,3.0,3.0,98,0.00,,,0.00,Wunderground v.1.15,2013-01-12 10:58:00,
2013-01-12 06:05:00,50.3,49.8,29.95,SW,215,3.0,4.0,98,0.00,,,0.00,Wunderground v.1.15,2013-01-12 11:05:00,
2013-01-12 06:10:00,50.3,49.8,29.94,ESE,105,3.0,6.0,98,0.00,,,0.00,Wunderground v.1.15,2013-01-12 11:10:00,
2013-01-12 06:15:00,50.3,49.8,29.95,SSE,155,3.0,6.0,98,0.00,,,0.00,Wunderground v.1.15,2013-01-12 11:15:00,
2013-01-12 06:22:00,50.3,49.8,29.94,SSW,200,3.0,5.0,98,0.00,,,0.00,Wunderground v.1.15,2013-01-12 11:22:00,
2013-01-12 06:28:00,50.3,49.8,29.94,SE,136,3.0,5.0,98,0.00,,,0.00,Wunderground v.1.15,2013-01-12 11:28:00,
2013-01-12 06:34:00,50.4,49.9,29.95,South,176,3.0,6.0,98,0.00,,,0.00,Wunderground v.1.15,2013-01-12 11:34:00,
2013-01-12 06:39:00,50.4,49.9,29.95,SSW,193,3.0,3.0,98,0.00,,,0.00,Wunderground v.1.15,2013-01-12 11:39:00,
2013-01-12 06:45:00,50.5,50.0,29.95,WSW,256,2.0,5.0,98,0.00,,,0.00,Wunderground v.1.15,2013-01-12 11:45:00,
2013-01-12 06:50:00,50.6,50.1,29.95,SW,229,3.0,5.0,98,0.00,,,0.00,Wunderground v.1.15,2013-01-12 11:50:00,
2013-01-12 06:56:00,50.6,50.1,29.95,ENE,70,4.0,5.0,98,0.00,,,0.00,Wunderground v.1.15,2013-01-12 11:56:00,
2013-01-12 07:02:00,50.6,50.1,29.95,SW,234,3.0,3.0,98,0.00,,,0.00,Wunderground v.1.15,2013-01-12 12:02:00,
2013-01-12 07:08:00,50.7,50.2,29.95,South,170,3.0,3.0,98,0.00,,,0.00,Wunderground v.1.15,2013-01-12 12:08:00,
2013-01-12 07:13:00,50.7,50.2,29.95,SSE,167,3.0,4.0,98,0.00,,,0.00,Wunderground v.1.15,2013-01-12 12:13:00,
2013-01-12 07:18:00,50.8,50.3,29.95,SW,218,4.0,4.0,98,0.00,,,0.00,Wunderground v.1.15,2013-01-12 12:18:00,
2013-01-12 07:24:00,50.8,50.3,29.95,SE,125,4.0,7.0,98,0.00,,,0.00,Wunderground v.1.15,2013-01-12 12:24:00,
2013-01-12 07:29:00,51.0,50.5,29.95,WSW,255,4.0,5.0,98,0.00,,,0.00,Wunderground v.1.15,2013-01-12 12:29:00,
2013-01-12 07:35:00,50.9,50.1,29.95,WNW,284,4.0,6.0,97,0.00,,,0.00,Wunderground v.1.15,2013-01-12 12:35:00,
2013-01-12 07:40:00,51.0,50.2,29.95,South,172,4.0,4.0,97,0.00,,,0.00,Wunderground v.1.15,2013-01-12 12:40:00,
2013-01-12 07:45:00,51.1,50.3,29.96,South,170,4.0,4.0,97,0.00,,,0.00,Wunderground v.1.15,2013-01-12 12:45:00,
2013-01-12 07:50:00,51.2,50.4,29.96,NNE,31,3.0,5.0,97,0.00,,,0.00,Wunderground v.1.15,2013-01-12 12:50:00,
2013-01-12 07:56:00,51.2,50.4,29.96,SSW,198,3.0,5.0,97,0.00,,,0.00,Wunderground v.1.15,2013-01-12 12:56:00,
2013-01-12 08:01:00,51.3,50.5,29.96,WSW,238,3.0,4.0,97,0.00,,,0.00,Wunderground v.1.15,2013-01-12 13:01:00,
2013-01-12 08:08:00,51.4,50.6,29.96,SSW,195,2.0,4.0,97,0.00,,,0.00,Wunderground v.1.15,2013-01-12 13:08:00,
2013-01-12 08:13:00,51.4,51.0,29.96,SW,236,2.0,7.0,97,0.00,,,0.00,weatherlink.com 1.10,2013-01-12 13:13:00,
2013-01-12 08:18:00,51.5,50.4,29.96,SW,221,3.0,4.0,96,0.00,,,0.00,Wunderground v.1.15,2013-01-12 13:18:00,
2013-01-12 08:23:00,51.5,50.4,29.97,SW,215,3.0,4.0,96,0.00,,,0.00,Wunderground v.1.15,2013-01-12 13:23:00,
2013-01-12 08:29:00,51.6,51.0,29.97,SSE,165,2.0,8.0,96,0.00,,,0.00,weatherlink.com 1.10,2013-01-12 13:29:00,
2013-01-12 08:34:00,51.5,50.4,29.97,SW,231,3.0,3.0,96,0.00,,,0.00,Wunderground v.1.15,2013-01-12 13:34:00,
2013-01-12 08:40:00,51.7,50.6,29.97,South,176,2.0,5.0,96,0.00,,,0.00,Wunderground v.1.15,2013-01-12 13:40:00,
2013-01-12 08:48:00,51.9,50.8,29.97,SSW,212,3.0,5.0,96,0.00,,,0.00,Wunderground v.1.15,2013-01-12 13:48:00,
2013-01-12 08:53:00,52.1,51.0,29.97,SW,218,4.0,5.0,96,0.00,,,0.00,Wunderground v.1.15,2013-01-12 13:53:00,
2013-01-12 08:58:00,52.3,51.2,29.98,SSW,202,4.0,4.0,96,0.00,,,0.00,Wunderground v.1.15,2013-01-12 13:58:00,
2013-01-12 09:04:00,52.4,51.3,29.98,SSW,204,3.0,5.0,96,0.00,,,0.00,Wunderground v.1.15,2013-01-12 14:04:00,
2013-01-12 09:09:00,52.6,51.5,29.98,SE,146,4.0,4.0,96,0.00,,,0.00,Wunderground v.1.15,2013-01-12 14:09:00,
2013-01-12 09:14:00,52.7,51.0,29.98,SW,216,4.0,11.0,95,0.00,,,0.00,weatherlink.com 1.10,2013-01-12 14:14:00,
2013-01-12 09:20:00,52.9,51.5,29.98,SW,214,3.0,4.0,95,0.00,,,0.00,Wunderground v.1.15,2013-01-12 14:20:00,
2013-01-12 09:28:00,53.1,51.7,29.98,SW,231,3.0,4.0,95,0.00,,,0.00,Wunderground v.1.15,2013-01-12 14:28:00,
2013-01-12 09:33:00,53.3,51.6,29.99,South,190,3.0,4.0,94,0.00,,,0.00,Wunderground v.1.15,2013-01-12 14:33:00,
2013-01-12 09:40:00,53.5,51.8,29.98,SE,136,3.0,4.0,94,0.00,,,0.00,Wunderground v.1.15,2013-01-12 14:40:00,
2013-01-12 09:45:00,53.6,52.0,29.99,NW,324,1.0,9.0,94,0.00,,,0.00,weatherlink.com 1.10,2013-01-12 14:45:00,
2013-01-12 09:50:00,53.9,52.2,29.99,SW,225,3.0,8.0,94,0.00,,,0.00,Wunderground v.1.15,2013-01-12 14:50:00,
2013-01-12 09:58:00,54.2,52.2,29.99,SW,224,3.0,8.0,93,0.00,,,0.00,Wunderground v.1.15,2013-01-12 14:58:00,
2013-01-12 10:04:00,54.3,52.3,29.99,SE,136,4.0,8.0,93,0.00,,,0.00,Wunderground v.1.15,2013-01-12 15:04:00,
2013-01-12 10:09:00,54.4,52.4,29.99,SSW,203,4.0,6.0,93,0.00,,,0.00,Wunderground v.1.15,2013-01-12 15:09:00,
2013-01-12 10:15:00,54.6,52.6,29.99,SSW,195,3.0,6.0,93,0.00,,,0.00,Wunderground v.1.15,2013-01-12 15:15:00,
2013-01-12 10:23:00,55.3,53.0,30.00,NNE,20,4.0,8.0,92,0.00,,,0.00,Wunderground v.1.15,2013-01-12 15:23:00,
2013-01-12 10:29:00,55.8,53.0,29.99,SSW,194,3.0,9.0,91,0.00,,,0.00,weatherlink.com 1.10,2013-01-12 15:29:00,
2013-01-12 10:34:00,56.1,53.2,30.00,ENE,63,3.0,5.0,90,0.00,,,0.00,Wunderground v.1.15,2013-01-12 15:34:00,
2013-01-12 10:40:00,56.5,53.6,30.00,South,179,4.0,8.0,90,0.00,,,0.00,Wunderground v.1.15,2013-01-12 15:40:00,
2013-01-12 10:46:00,56.7,53.5,29.99,SE,132,4.0,8.0,89,0.00,,,0.00,Wunderground v.1.15,2013-01-12 15:46:00,
2013-01-12 10:51:00,57.0,53.8,29.99,NW,323,4.0,4.0,89,0.00,,,0.00,Wunderground v.1.15,2013-01-12 15:51:00,
2013-01-12 10:58:00,57.2,53.7,29.99,South,173,4.0,4.0,88,0.00,,,0.00,Wunderground v.1.15,2013-01-12 15:58:00,
2013-01-12 11:04:00,57.4,53.9,29.99,South,174,3.0,5.0,88,0.00,,,0.00,Wunderground v.1.15,2013-01-12 16:04:00,
2013-01-12 11:09:00,57.6,53.8,29.99,SSW,200,3.0,5.0,87,0.00,,,0.00,Wunderground v.1.15,2013-01-12 16:09:00,
2013-01-12 11:15:00,57.8,53.6,29.99,West,262,4.0,5.0,86,0.00,,,0.00,Wunderground v.1.15,2013-01-12 16:15:00,
2013-01-12 11:21:00,58.1,53.6,29.98,West,259,5.0,7.0,85,0.00,,,0.00,Wunderground v.1.15,2013-01-12 16:21:00,
2013-01-12 11:27:00,58.3,53.8,29.98,West,262,5.0,7.0,85,0.00,,,0.00,Wunderground v.1.15,2013-01-12 16:27:00,
2013-01-12 11:34:00,58.4,53.9,29.98,SE,129,4.0,5.0,85,0.00,,,0.00,Wunderground v.1.15,2013-01-12 16:34:00,
2013-01-12 11:40:00,58.4,53.9,29.98,SW,226,4.0,8.0,85,0.00,,,0.00,Wunderground v.1.15,2013-01-12 16:40:00,
2013-01-12 11:47:00,58.6,54.0,29.98,West,267,1.0,11.0,85,0.00,,,0.00,weatherlink.com 1.10,2013-01-12 16:47:00,
2013-01-12 12:00:00,58.7,54.0,29.97,SW,233,3.0,9.0,84,0.00,,,0.00,weatherlink.com 1.10,2013-01-12 17:00:00,
2013-01-12 12:15:00,59.3,54.0,29.97,WNW,284,1.0,10.0,83,0.00,,,0.00,weatherlink.com 1.10,2013-01-12 17:15:00,
2013-01-12 12:30:00,59.8,54.0,29.96,West,271,9.0,10.0,81,0.00,,,0.00,weatherlink.com 1.10,2013-01-12 17:30:00,
2013-01-12 12:45:00,60.2,54.0,29.96,West,262,7.0,9.0,80,0.00,,,0.00,weatherlink.com 1.10,2013-01-12 17:45:00,
2013-01-12 13:00:00,60.3,54.0,29.96,SSW,193,5.0,9.0,80,0.00,,,0.00,weatherlink.com 1.10,2013-01-12 18:00:00,
2013-01-12 13:15:00,60.3,54.0,29.95,South,173,2.0,9.0,79,0.00,,,0.00,weatherlink.com 1.10,2013-01-12 18:15:00,
2013-01-12 13:30:00,60.7,54.0,29.95,WNW,293,3.0,7.0,79,0.00,,,0.00,weatherlink.com 1.10,2013-01-12 18:30:00,
2013-01-12 13:45:00,60.8,54.0,29.95,SW,227,1.0,11.0,78,0.00,,,0.00,weatherlink.com 1.10,2013-01-12 18:45:00,
2013-01-12 14:00:00,61.1,55.0,29.95,West,269,1.0,10.0,79,0.00,,,0.00,weatherlink.com 1.10,2013-01-12 19:00:00,
2013-01-12 14:15:00,60.9,54.0,29.94,WSW,251,4.0,12.0,78,0.00,,,0.00,weatherlink.com 1.10,2013-01-12 19:15:00,
2013-01-12 14:30:00,60.4,54.0,29.94,SSE,160,4.0,16.0,79,0.00,,,0.00,weatherlink.com 1.10,2013-01-12 19:30:00,
2013-01-12 14:45:00,60.1,54.0,29.95,SE,139,4.0,12.0,80,0.00,,,0.00,weatherlink.com 1.10,2013-01-12 19:45:00,
2013-01-12 15:00:00,59.9,54.0,29.95,SW,214,3.0,12.0,80,0.00,,,0.00,weatherlink.com 1.10,2013-01-12 20:00:00,
2013-01-12 15:15:00,60.0,54.0,29.95,SW,219,4.0,11.0,80,0.00,,,0.00,weatherlink.com 1.10,2013-01-12 20:15:00,
2013-01-12 15:30:00,59.8,54.0,29.95,SW,228,4.0,11.0,81,0.00,,,0.00,weatherlink.com 1.10,2013-01-12 20:30:00,
2013-01-12 15:45:00,60.0,54.0,29.95,SSE,163,4.0,9.0,81,0.00,,,0.00,weatherlink.com 1.10,2013-01-12 20:45:00,
2013-01-12 16:00:00,60.5,54.0,29.96,East,91,3.0,14.0,80,0.00,,,0.00,weatherlink.com 1.10,2013-01-12 21:00:00,
2013-01-12 16:15:00,60.2,54.0,29.96,WNW,295,2.0,11.0,80,0.00,,,0.00,weatherlink.com 1.10,2013-01-12 21:15:00,
2013-01-12 16:30:00,59.4,54.0,29.96,SSE,165,4.0,9.0,82,0.00,,,0.00,weatherlink.com 1.10,2013-01-12 21:30:00,
2013-01-12 16:42:00,59.0,53.8,29.97,SE,145,2.0,12.0,83,0.00,,,0.00,Wunderground v.1.15,2013-01-12 21:42:00,
2013-01-12 16:48:00,58.9,53.7,29.97,South,188,2.0,12.0,83,0.00,,,0.00,Wunderground v.1.15,2013-01-12 21:48:00,
2013-01-12 16:54:00,58.8,53.6,29.97,SSW,195,1.0,1.0,83,0.00,,,0.00,Wunderground v.1.15,2013-01-12 21:54:00,
2013-01-12 17:00:00,58.5,53.7,29.97,SSE,156,0.0,0.0,84,0.00,,,0.00,Wunderground v.1.15,2013-01-12 22:00:00,
2013-01-12 17:05:00,58.3,53.5,29.97,SSE,163,0.0,1.0,84,0.00,,,0.00,Wunderground v.1.15,2013-01-12 22:05:00,
2013-01-12 17:10:00,58.1,53.6,29.97,SSE,163,0.0,0.0,85,0.00,,,0.00,Wunderground v.1.15,2013-01-12 22:10:00,
2013-01-12 17:16:00,57.7,53.5,29.97,SSE,156,0.0,0.0,86,0.00,,,0.00,Wunderground v.1.15,2013-01-12 22:16:00,
2013-01-12 17:21:00,57.5,53.3,29.97,ESE,115,0.0,1.0,86,0.00,,,0.00,Wunderground v.1.15,2013-01-12 22:21:00,
2013-01-12 17:28:00,57.1,53.3,29.97,ESE,114,0.0,1.0,87,0.00,,,0.00,Wunderground v.1.15,2013-01-12 22:28:00,
2013-01-12 17:34:00,57.0,53.2,29.96,ESE,108,1.0,2.0,87,0.00,,,0.00,Wunderground v.1.15,2013-01-12 22:34:00,
2013-01-12 17:40:00,56.5,52.7,29.95,ESE,107,1.0,1.0,87,0.00,,,0.00,Wunderground v.1.15,2013-01-12 22:40:00,
2013-01-12 17:46:00,56.2,53.0,29.95,ESE,117,0.0,4.0,89,0.00,,,0.00,weatherlink.com 1.10,2013-01-12 22:46:00,
2013-01-12 17:51:00,56.0,52.8,29.95,ESE,117,1.0,1.0,89,0.00,,,0.00,Wunderground v.1.15,2013-01-12 22:51:00,
2013-01-12 17:58:00,55.0,52.1,29.95,ESE,117,0.0,0.0,90,0.00,,,0.00,Wunderground v.1.15,2013-01-12 22:58:00,
2013-01-12 18:04:00,54.3,51.4,29.95,ESE,117,0.0,0.0,90,0.00,,,0.00,Wunderground v.1.15,2013-01-12 23:04:00,
2013-01-12 18:09:00,53.9,51.3,29.95,ESE,120,0.0,0.0,91,0.00,,,0.00,Wunderground v.1.15,2013-01-12 23:09:00,
2013-01-12 18:15:00,53.4,51.1,29.95,SE,125,0.0,2.0,92,0.00,,,0.00,Wunderground v.1.15,2013-01-12 23:15:00,
2013-01-12 18:21:00,53.4,51.4,29.95,East,101,1.0,1.0,93,0.00,,,0.00,Wunderground v.1.15,2013-01-12 23:21:00,
2013-01-12 18:27:00,53.6,51.6,29.94,SSE,163,1.0,1.0,93,0.00,,,0.00,Wunderground v.1.15,2013-01-12 23:27:00,
2013-01-12 18:33:00,53.8,52.1,29.95,SE,139,0.0,1.0,94,0.00,,,0.00,Wunderground v.1.15,2013-01-12 23:33:00,
2013-01-12 18:39:00,53.3,51.0,29.94,SE,139,0.0,0.0,92,0.00,,,0.00,Wunderground v.1.15,2013-01-12 23:39:00,
2013-01-12 18:44:00,52.9,50.9,29.94,SE,138,0.0,0.0,93,0.00,,,0.00,Wunderground v.1.15,2013-01-12 23:44:00,
2013-01-12 18:49:00,52.7,50.7,29.95,SE,139,0.0,0.0,93,0.00,,,0.00,Wunderground v.1.15,2013-01-12 23:49:00,
2013-01-12 18:55:00,52.1,50.1,29.94,SE,139,0.0,0.0,93,0.00,,,0.00,Wunderground v.1.15,2013-01-12 23:55:00,
2013-01-12 19:00:00,51.9,50.2,29.94,ESE,114,0.0,1.0,94,0.00,,,0.00,Wunderground v.1.15,2013-01-13 00:00:00,
2013-01-12 19:06:00,52.4,51.0,29.94,ESE,115,0.0,1.0,95,0.00,,,0.00,Wunderground v.1.15,2013-01-13 00:06:00,
2013-01-12 19:11:00,52.2,50.8,29.95,ESE,115,0.0,0.0,95,0.00,,,0.00,Wunderground v.1.15,2013-01-13 00:11:00,
2013-01-12 19:17:00,51.9,50.5,29.95,SE,137,0.0,1.0,95,0.00,,,0.00,Wunderground v.1.15,2013-01-13 00:17:00,
2013-01-12 19:23:00,51.4,49.7,29.94,SE,139,0.0,1.0,94,0.00,,,0.00,Wunderground v.1.15,2013-01-13 00:23:00,
2013-01-12 19:28:00,52.1,51.0,29.94,ESE,113,0.0,1.0,96,0.00,,,0.00,Wunderground v.1.15,2013-01-13 00:28:00,
2013-01-12 19:34:00,52.5,51.4,29.93,SE,139,1.0,1.0,96,0.00,,,0.00,Wunderground v.1.15,2013-01-13 00:34:00,
2013-01-12 19:39:00,52.5,51.4,29.94,SE,139,0.0,0.0,96,0.00,,,0.00,Wunderground v.1.15,2013-01-13 00:39:00,
2013-01-12 19:44:00,52.0,50.6,29.94,SE,139,0.0,0.0,95,0.00,,,0.00,Wunderground v.1.15,2013-01-13 00:44:00,
2013-01-12 19:49:00,52.1,50.7,29.94,SE,139,0.0,0.0,95,0.00,,,0.00,Wunderground v.1.15,2013-01-13 00:49:00,
2013-01-12 19:55:00,52.1,51.0,29.93,SE,139,0.0,0.0,96,0.00,,,0.00,Wunderground v.1.15,2013-01-13 00:55:00,
2013-01-12 20:01:00,52.4,51.3,29.93,ESE,110,0.0,2.0,96,0.00,,,0.00,Wunderground v.1.15,2013-01-13 01:01:00,
2013-01-12 20:07:00,53.4,52.6,29.93,SE,131,1.0,3.0,97,0.00,,,0.00,Wunderground v.1.15,2013-01-13 01:07:00,
2013-01-12 20:12:00,53.7,52.6,29.93,SE,129,2.0,2.0,96,0.00,,,0.00,Wunderground v.1.15,2013-01-13 01:12:00,
2013-01-12 20:18:00,54.0,52.9,29.93,SSE,148,2.0,3.0,96,0.00,,,0.00,Wunderground v.1.15,2013-01-13 01:18:00,
2013-01-12 20:23:00,54.2,52.8,29.92,SE,136,2.0,3.0,95,0.00,,,0.00,Wunderground v.1.15,2013-01-13 01:23:00,
2013-01-12 20:29:00,54.2,52.5,29.93,SE,136,1.0,2.0,94,0.00,,,0.00,Wunderground v.1.15,2013-01-13 01:29:00,
2013-01-12 20:34:00,54.1,52.4,29.92,SE,139,1.0,2.0,94,0.00,,,0.00,Wunderground v.1.15,2013-01-13 01:34:00,
2013-01-12 20:39:00,54.3,52.9,29.92,SE,132,1.0,4.0,95,0.00,,,0.00,Wunderground v.1.15,2013-01-13 01:39:00,
2013-01-12 20:45:00,54.5,52.8,29.92,SE,124,2.0,4.0,94,0.00,,,0.00,Wunderground v.1.15,2013-01-13 01:45:00,
2013-01-12 20:50:00,54.8,53.1,29.92,SE,132,2.0,5.0,94,0.00,,,0.00,Wunderground v.1.15,2013-01-13 01:50:00,
2013-01-12 20:57:00,55.0,53.3,29.91,SSE,160,2.0,2.0,94,0.00,,,0.00,Wunderground v.1.15,2013-01-13 01:57:00,
2013-01-12 21:03:00,55.1,54.0,29.91,SSE,163,2.0,4.0,94,0.00,,,0.00,weatherlink.com 1.10,2013-01-13 02:03:00,
2013-01-12 21:09:00,55.0,53.0,29.91,ESE,121,2.0,4.0,93,0.00,,,0.00,Wunderground v.1.15,2013-01-13 02:09:00,
2013-01-12 21:14:00,55.1,53.1,29.90,South,191,3.0,4.0,93,0.00,,,0.00,Wunderground v.1.15,2013-01-13 02:14:00,
2013-01-12 21:20:00,55.4,53.4,29.90,SSE,155,3.0,4.0,93,0.00,,,0.00,Wunderground v.1.15,2013-01-13 02:20:00,
2013-01-12 21:25:00,55.5,53.5,29.90,SSE,151,3.0,5.0,93,0.00,,,0.00,Wunderground v.1.15,2013-01-13 02:25:00,
2013-01-12 21:30:00,55.6,53.6,29.89,ESE,109,3.0,5.0,93,0.00,,,0.00,Wunderground v.1.15,2013-01-13 02:30:00,
2013-01-12 21:35:00,55.7,53.7,29.89,SE,139,3.0,5.0,93,0.00,,,0.00,Wunderground v.1.15,2013-01-13 02:35:00,
2013-01-12 21:40:00,55.9,53.9,29.89,SE,143,3.0,4.0,93,0.00,,,0.00,Wunderground v.1.15,2013-01-13 02:40:00,
2013-01-12 21:45:00,55.9,53.9,29.89,SSE,159,3.0,4.0,93,0.00,,,0.00,Wunderground v.1.15,2013-01-13 02:45:00,
2013-01-12 21:53:00,55.8,53.8,29.89,SSW,200,2.0,3.0,93,0.00,,,0.00,Wunderground v.1.15,2013-01-13 02:53:00,
2013-01-12 21:58:00,55.8,53.8,29.89,SE,139,2.0,2.0,93,0.00,,,0.00,Wunderground v.1.15,2013-01-13 02:58:00,
2013-01-12 22:03:00,55.9,53.9,29.89,SSE,152,2.0,2.0,93,0.00,,,0.00,Wunderground v.1.15,2013-01-13 03:03:00,
2013-01-12 22:09:00,56.1,54.1,29.89,ESE,117,2.0,4.0,93,0.00,,,0.00,Wunderground v.1.15,2013-01-13 03:09:00,
2013-01-12 22:15:00,56.1,54.1,29.89,SE,138,2.0,4.0,93,0.00,,,0.00,Wunderground v.1.15,2013-01-13 03:15:00,
2013-01-12 22:20:00,56.1,54.1,29.88,SE,129,2.0,2.0,93,0.00,,,0.00,Wunderground v.1.15,2013-01-13 03:20:00,
2013-01-12 22:25:00,56.1,54.1,29.88,ESE,120,2.0,3.0,93,0.00,,,0.00,Wunderground v.1.15,2013-01-13 03:25:00,
2013-01-12 22:30:00,56.2,54.2,29.88,SSE,152,2.0,3.0,93,0.00,,,0.00,Wunderground v.1.15,2013-01-13 03:30:00,
2013-01-12 22:35:00,56.2,54.2,29.87,SSE,152,2.0,3.0,93,0.00,,,0.00,Wunderground v.1.15,2013-01-13 03:35:00,
2013-01-12 22:41:00,56.3,54.3,29.87,SSE,155,3.0,5.0,93,0.00,,,0.00,Wunderground v.1.15,2013-01-13 03:41:00,
2013-01-12 22:48:00,56.5,54.5,29.87,East,84,4.0,5.0,93,0.00,,,0.00,Wunderground v.1.15,2013-01-13 03:48:00,
2013-01-12 22:55:00,56.4,54.7,29.86,East,91,4.0,5.0,94,0.00,,,0.01,Wunderground v.1.15,2013-01-13 03:55:00,
2013-01-12 23:00:00,56.4,54.7,29.86,SE,131,3.0,4.0,94,0.00,,,0.01,Wunderground v.1.15,2013-01-13 04:00:00,
2013-01-12 23:06:00,56.4,54.7,29.86,ESE,120,4.0,5.0,94,0.00,,,0.01,Wunderground v.1.15,2013-01-13 04:06:00,
2013-01-12 23:13:00,56.4,54.7,29.85,SE,131,5.0,7.0,94,0.00,,,0.01,Wunderground v.1.15,2013-01-13 04:13:00,
2013-01-12 23:18:00,56.5,55.1,29.85,SE,136,5.0,7.0,95,0.00,,,0.01,Wunderground v.1.15,2013-01-13 04:18:00,
2013-01-12 23:24:00,56.5,55.1,29.85,SSE,167,5.0,7.0,95,0.00,,,0.01,Wunderground v.1.15,2013-01-13 04:24:00,
2013-01-12 23:29:00,56.5,55.1,29.85,ESE,108,4.0,6.0,95,0.00,,,0.01,Wunderground v.1.15,2013-01-13 04:29:00,
2013-01-12 23:35:00,56.7,55.3,29.84,ESE,113,5.0,9.0,95,0.00,,,0.01,Wunderground v.1.15,2013-01-13 04:35:00,
2013-01-12 23:42:00,56.7,55.3,29.83,ESE,103,5.0,7.0,95,0.00,,,0.01,Wunderground v.1.15,2013-01-13 04:42:00,
2013-01-12 23:48:00,56.7,55.3,29.83,SE,134,4.0,4.0,95,0.00,,,0.01,Wunderground v.1.15,2013-01-13 04:48:00,
2013-01-12 23:53:00,56.8,55.4,29.83,ESE,112,4.0,4.0,95,0.00,,,0.01,Wunderground v.1.15,2013-01-13 04:53:00,
2013-01-12 23:58:00,56.8,55.4,29.83,SE,145,4.0,5.0,95,0.00,,,0.01,Wunderground v.1.15,2013-01-13 04:58:00,